When you browse on this site, cookies collect data to enhance your experience and personalize the content and advertising you see.
Visit our Privacy Policy to learn more. By continuing to use the site, you agree to this use of cookies and data.
  • In Hungary
  • List of Countries
  • For 7 days
  • Water Temperature
  • Weather Map
  • News
  • Weather Widgets
  • user-avatar
    Login

    Hourly Weather Raskuiha

    Today, 19 January, Sunday

    Time Temperature Precipitation Wind Pressure Humidity
    00:00 -7°C° 0 mm 3 mps 733 mmHg 88%
    01:00 -7°C° 0 mm 2 mps 733 mmHg 89%
    02:00 -8°C° 0 mm 2 mps 733 mmHg 91%
    03:00 -9°C° 0 mm 2 mps 734 mmHg 93%
    04:00 -12°C° 0 mm 2 mps 734 mmHg 95%
    05:00 -10°C° 0 mm 1 mps 734 mmHg 94%
    06:00 -11°C° 0 mm 1 mps 734 mmHg 93%
    07:00 -12°C° 0 mm 1 mps 734 mmHg 91%
    08:00 -11°C° 0 mm 1 mps 735 mmHg 89%
    09:00 -11°C° 0 mm 1 mps 735 mmHg 86%
    10:00 -10°C° 0 mm 1 mps 735 mmHg 84%
    11:00 -9°C° 0 mm 1 mps 735 mmHg 83%
    12:00 -8°C° 0 mm 1 mps 735 mmHg 82%
    13:00 -7°C° 0 mm 1 mps 735 mmHg 81%
    14:00 -7°C° 0 mm 1 mps 734 mmHg 85%
    15:00 -7°C° 0 mm 1 mps 734 mmHg 89%
    16:00 -7°C° 0 mm 1 mps 734 mmHg 93%
    17:00 -7°C° 0.3 mm 1 mps 734 mmHg 94%
    18:00 -6°C° 0.3 mm 1 mps 734 mmHg 95%
    19:00 -6°C° 0.3 mm 1 mps 733 mmHg 95%
    20:00 -7°C° 0.3 mm 2 mps 733 mmHg 95%
    21:00 -7°C° 0.3 mm 2 mps 733 mmHg 95%
    22:00 -6°C° 0.3 mm 2 mps 732 mmHg 95%
    23:00 -6°C° 0.2 mm 2 mps 732 mmHg 96%

    Tomorrow, 20 January, Monday

    Time Temperature Precipitation Wind Pressure Humidity
    00:00 -6°C° 0.2 mm 2 mps 731 mmHg 96%
    01:00 -6°C° 0.2 mm 2 mps 731 mmHg 96%
    02:00 -6°C° 0.3 mm 2 mps 730 mmHg 96%
    03:00 -6°C° 0.3 mm 2 mps 730 mmHg 96%
    04:00 -6°C° 0.3 mm 2 mps 730 mmHg 96%
    05:00 -6°C° 0.5 mm 2 mps 729 mmHg 96%
    06:00 -6°C° 0.5 mm 2 mps 729 mmHg 96%
    07:00 -4°C° 0.5 mm 1 mps 728 mmHg 96%
    08:00 -4°C° 0.4 mm 1 mps 728 mmHg 96%
    09:00 -6°C° 0.4 mm 2 mps 728 mmHg 95%
    10:00 -6°C° 0.4 mm 2 mps 728 mmHg 95%
    11:00 -6°C° 0.4 mm 2 mps 728 mmHg 94%
    12:00 -5°C° 0.4 mm 2 mps 728 mmHg 94%
    13:00 -5°C° 0.4 mm 2 mps 727 mmHg 94%
    14:00 -7°C° 0.1 mm 2 mps 727 mmHg 94%
    15:00 -8°C° 0.1 mm 2 mps 728 mmHg 95%
    16:00 -9°C° 0.1 mm 2 mps 728 mmHg 95%
    17:00 -10°C° 0 mm 2 mps 728 mmHg 96%
    18:00 -12°C° 0 mm 2 mps 728 mmHg 96%
    19:00 -13°C° 0 mm 2 mps 728 mmHg 96%
    20:00 -12°C° 0 mm 1 mps 728 mmHg 97%
    21:00 -12°C° 0 mm 1 mps 728 mmHg 97%
    22:00 -13°C° 0 mm 1 mps 728 mmHg 97%
    23:00 -13°C° 0 mm 1 mps 728 mmHg 97%

    Day after tomorrow, 21 January, Tuesday

    Time Temperature Precipitation Wind Pressure Humidity
    00:00 -14°C° 0 mm 1 mps 728 mmHg 98%
    01:00 -14°C° 0 mm 1 mps 728 mmHg 98%
    02:00 -15°C° 0 mm 1 mps 728 mmHg 98%
    03:00 -15°C° 0 mm 1 mps 728 mmHg 98%
    04:00 -16°C° 0 mm 1 mps 728 mmHg 98%
    05:00 -16°C° 0 mm 1 mps 728 mmHg 98%
    06:00 -17°C° 0 mm 1 mps 727 mmHg 99%
    07:00 -17°C° 0 mm 1 mps 727 mmHg 99%
    08:00 -17°C° 0 mm 1 mps 727 mmHg 98%
    09:00 -16°C° 0 mm 1 mps 727 mmHg 97%
    10:00 -16°C° 0 mm 1 mps 727 mmHg 96%
    11:00 -15°C° 0 mm 1 mps 727 mmHg 94%
    12:00 -15°C° 0 mm 2 mps 726 mmHg 93%
    13:00 -14°C° 0 mm 2 mps 726 mmHg 91%
    14:00 -15°C° 0 mm 2 mps 726 mmHg 92%
    15:00 -16°C° 0 mm 2 mps 725 mmHg 94%
    16:00 -17°C° 0 mm 2 mps 725 mmHg 96%
    17:00 -17°C° 0 mm 2 mps 724 mmHg 96%
    18:00 -17°C° 0 mm 2 mps 723 mmHg 96%
    19:00 -18°C° 0 mm 2 mps 723 mmHg 96%
    20:00 -17°C° 0 mm 2 mps 722 mmHg 96%
    21:00 -17°C° 0 mm 2 mps 722 mmHg 96%
    22:00 -16°C° 0 mm 2 mps 721 mmHg 96%
    23:00 -16°C° 0 mm 2 mps 720 mmHg 96%

    22 January, Wednesday

    Time Temperature Precipitation Wind Pressure Humidity
    00:00 -16°C° 0 mm 3 mps 719 mmHg 96%
    01:00 -15°C° 0 mm 3 mps 718 mmHg 95%
    02:00 -14°C° 0 mm 3 mps 718 mmHg 94%
    03:00 -13°C° 0 mm 3 mps 717 mmHg 92%
    04:00 -12°C° 0 mm 4 mps 716 mmHg 91%
    05:00 -12°C° 0 mm 4 mps 715 mmHg 91%
    06:00 -11°C° 0 mm 4 mps 714 mmHg 90%
    07:00 -10°C° 0 mm 4 mps 713 mmHg 90%
    08:00 -10°C° 0.1 mm 4 mps 712 mmHg 89%
    09:00 -9°C° 0.1 mm 4 mps 712 mmHg 88%
    10:00 -9°C° 0.1 mm 4 mps 711 mmHg 88%
    11:00 -8°C° 0.1 mm 4 mps 710 mmHg 88%
    12:00 -8°C° 0.1 mm 4 mps 710 mmHg 87%
    13:00 -8°C° 0.1 mm 4 mps 709 mmHg 87%
    14:00 -7°C° 0.1 mm 4 mps 709 mmHg 89%
    15:00 -6°C° 0.1 mm 3 mps 708 mmHg 90%
    16:00 -6°C° 0.1 mm 3 mps 708 mmHg 92%
    17:00 -7°C° 0 mm 3 mps 707 mmHg 92%
    18:00 -7°C° 0 mm 3 mps 707 mmHg 91%
    19:00 -7°C° 0 mm 3 mps 707 mmHg 91%
    20:00 -7°C° 0 mm 3 mps 707 mmHg 91%
    21:00 -7°C° 0 mm 3 mps 707 mmHg 91%
    22:00 -7°C° 0 mm 3 mps 707 mmHg 91%
    23:00 -7°C° 0 mm 3 mps 706 mmHg 92%

    23 January, Thursday

    Time Temperature Precipitation Wind Pressure Humidity
    00:00 -7°C° 0 mm 2 mps 706 mmHg 93%
    01:00 -8°C° 0 mm 2 mps 705 mmHg 94%
    02:00 -8°C° 0.1 mm 2 mps 705 mmHg 94%
    03:00 -8°C° 0.1 mm 2 mps 705 mmHg 94%
    04:00 -7°C° 0.1 mm 2 mps 705 mmHg 94%
    05:00 -9°C° 0.1 mm 3 mps 706 mmHg 93%
    06:00 -10°C° 0.1 mm 4 mps 706 mmHg 92%
    07:00 -10°C° 0.1 mm 4 mps 706 mmHg 91%
    08:00 -11°C° 0 mm 5 mps 707 mmHg 90%
    09:00 -11°C° 0 mm 5 mps 708 mmHg 88%
    10:00 -11°C° 0 mm 5 mps 709 mmHg 86%
    11:00 -11°C° 0 mm 5 mps 710 mmHg 85%
    12:00 -11°C° 0 mm 5 mps 710 mmHg 84%
    13:00 -11°C° 0 mm 5 mps 711 mmHg 83%
    14:00 -11°C° 0 mm 5 mps 712 mmHg 84%
    15:00 -11°C° 0 mm 4 mps 713 mmHg 85%
    16:00 -11°C° 0 mm 4 mps 713 mmHg 87%
    17:00 -12°C° 0 mm 4 mps 714 mmHg 88%
    18:00 -12°C° 0 mm 4 mps 714 mmHg 88%
    19:00 -12°C° 0 mm 4 mps 715 mmHg 89%
    20:00 -13°C° 0 mm 3 mps 715 mmHg 90%
    21:00 -14°C° 0 mm 3 mps 716 mmHg 91%
    22:00 -14°C° 0 mm 3 mps 716 mmHg 92%
    23:00 -15°C° 0 mm 3 mps 716 mmHg 92%

    24 January, Friday

    Time Temperature Precipitation Wind Pressure Humidity
    00:00 -15°C° 0 mm 3 mps 717 mmHg 91%
    01:00 -16°C° 0 mm 3 mps 717 mmHg 91%
    02:00 -17°C° 0 mm 4 mps 718 mmHg 90%
    03:00 -17°C° 0 mm 4 mps 718 mmHg 90%
    04:00 -18°C° 0 mm 4 mps 718 mmHg 90%
    05:00 -18°C° 0 mm 4 mps 719 mmHg 89%
    06:00 -18°C° 0 mm 4 mps 719 mmHg 89%
    07:00 -18°C° 0 mm 4 mps 719 mmHg 89%
    08:00 -18°C° 0 mm 4 mps 719 mmHg 88%
    09:00 -18°C° 0 mm 4 mps 720 mmHg 87%
    10:00 -18°C° 0 mm 5 mps 720 mmHg 86%
    11:00 -18°C° 0 mm 5 mps 720 mmHg 86%
    12:00 -16°C° 0 mm 4 mps 720 mmHg 85%
    13:00 -16°C° 0 mm 4 mps 721 mmHg 85%
    14:00 -16°C° 0 mm 4 mps 721 mmHg 86%
    15:00 -17°C° 0 mm 4 mps 721 mmHg 87%
    16:00 -17°C° 0 mm 4 mps 721 mmHg 89%
    17:00 -18°C° 0 mm 4 mps 721 mmHg 89%
    18:00 -18°C° 0 mm 4 mps 721 mmHg 89%
    19:00 -18°C° 0 mm 4 mps 721 mmHg 89%
    20:00 -19°C° 0 mm 4 mps 721 mmHg 89%
    21:00 -19°C° 0 mm 4 mps 722 mmHg 90%
    22:00 -19°C° 0 mm 4 mps 722 mmHg 90%
    23:00 -19°C° 0 mm 4 mps 722 mmHg 90%
    Show more